SAS13TM ESSA-LMML

Flight info

Callsign SAS13TM
Flight time 3h 44m
Altitude 34000
Route NOSLI N850 ABAMA/N0450F330 DCT LUSID DCT DOSAL/N0454F350 DCT TOMTI/N0452F340 DCT BUDEX/N0453F350 DCT LIMRA DCT DOL DCT SABAD DCT XAMIT DCT OBAXU DCT NELDA DCT DIRKA N982 GZO
Aircraft B738/M-SDGIJ1LRWY/SB1

Departure

Time 2026-05-06 12:27
Airport Stockholm-Arlanda Airport (ESSA)

Arrival

Time 2026-05-06 16:12
Airport Malta International Airport (LMML)
Time Latitude Longitude Altitude Speed Heading
2026-05-06 11:52 59.65333 17.93171 111 ft 0 kts 250°
2026-05-06 12:16 59.65335 17.93183 111 ft 2 kts 257°
2026-05-06 12:16 59.65339 17.93211 111 ft 2 kts 248°
2026-05-06 12:16 59.65344 17.93240 111 ft 2 kts 271°
2026-05-06 12:16 59.65340 17.93269 111 ft 2 kts 302°
2026-05-06 12:17 59.65330 17.93290 111 ft 2 kts 333°
2026-05-06 12:17 59.65323 17.93295 111 ft 1 kts 351°
2026-05-06 12:17 59.65318 17.93297 111 ft 0 kts 346°
2026-05-06 12:20 59.65323 17.93295 111 ft 3 kts 346°
2026-05-06 12:20 59.65356 17.93278 111 ft 4 kts 346°
2026-05-06 12:20 59.65386 17.93264 111 ft 4 kts 346°
2026-05-06 12:21 59.65417 17.93249 111 ft 5 kts 347°
2026-05-06 12:21 59.65457 17.93210 111 ft 7 kts 329°
2026-05-06 12:21 59.65499 17.93155 110 ft 7 kts 304°
2026-05-06 12:21 59.65500 17.93054 110 ft 7 kts 256°
2026-05-06 12:22 59.65485 17.92939 109 ft 9 kts 253°
2026-05-06 12:22 59.65459 17.92817 109 ft 9 kts 247°
2026-05-06 12:22 59.65434 17.92704 108 ft 9 kts 257°
2026-05-06 12:22 59.65460 17.92598 108 ft 9 kts 333°
2026-05-06 12:23 59.65521 17.92536 108 ft 10 kts 337°
2026-05-06 12:23 59.65589 17.92498 107 ft 10 kts 346°
2026-05-06 12:23 59.65667 17.92459 108 ft 12 kts 345°
2026-05-06 12:23 59.65756 17.92424 108 ft 13 kts 357°
2026-05-06 12:24 59.65852 17.92452 109 ft 14 kts 11°
2026-05-06 12:24 59.65954 17.92487 110 ft 14 kts 11°
2026-05-06 12:24 59.66047 17.92522 112 ft 13 kts 10°
2026-05-06 12:24 59.66128 17.92551 113 ft 10 kts 11°
2026-05-06 12:25 59.66193 17.92574 114 ft 8 kts 10°
2026-05-06 12:25 59.66254 17.92596 115 ft 9 kts 11°
2026-05-06 12:25 59.66325 17.92623 116 ft 11 kts 11°
2026-05-06 12:25 59.66412 17.92650 118 ft 13 kts
2026-05-06 12:26 59.66510 17.92619 119 ft 14 kts 341°
2026-05-06 12:26 59.66586 17.92558 120 ft 11 kts 323°
2026-05-06 12:26 59.66608 17.92423 120 ft 10 kts 253°
2026-05-06 12:26 59.66555 17.92346 120 ft 11 kts 191°
2026-05-06 12:27 59.66345 17.92269 116 ft 65 kts 190°
2026-05-06 12:27 59.65666 17.92024 106 ft 133 kts 191°
2026-05-06 12:27 59.64565 17.91626 187 ft 180 kts 191°
2026-05-06 12:27 59.63382 17.91230 1153 ft 170 kts 191°
2026-05-06 12:28 59.62245 17.90792 1914 ft 170 kts 193°
2026-05-06 12:28 59.61060 17.90147 2220 ft 188 kts 207°
2026-05-06 12:28 59.60098 17.88345 2630 ft 202 kts 244°
2026-05-06 12:28 59.59647 17.85642 3067 ft 216 kts 252°
2026-05-06 12:29 59.59074 17.82827 3599 ft 228 kts 242°
2026-05-06 12:29 59.58315 17.80038 4250 ft 235 kts 241°
2026-05-06 12:29 59.57529 17.77117 4659 ft 252 kts 241°
2026-05-06 12:29 59.56561 17.74108 5109 ft 266 kts 227°
2026-05-06 12:30 59.55118 17.71901 5727 ft 269 kts 206°
2026-05-06 12:30 59.53425 17.70334 6364 ft 272 kts 202°
2026-05-06 12:30 59.51689 17.68832 7036 ft 275 kts 204°
2026-05-06 12:30 59.49950 17.67242 7712 ft 278 kts 205°
2026-05-06 12:31 59.48230 17.65592 8408 ft 281 kts 206°
2026-05-06 12:31 59.46476 17.63871 9138 ft 284 kts 207°
2026-05-06 12:31 59.44714 17.62131 9853 ft 286 kts 207°
2026-05-06 12:31 59.42941 17.60384 10466 ft 292 kts 207°
2026-05-06 12:32 59.41090 17.58564 10842 ft 307 kts 208°
2026-05-06 12:32 59.39142 17.56654 11220 ft 321 kts 208°
2026-05-06 12:32 59.37106 17.54660 11594 ft 335 kts 208°
2026-05-06 12:32 59.35007 17.52607 12178 ft 341 kts 209°
2026-05-06 12:33 59.32879 17.50532 12833 ft 344 kts 209°
2026-05-06 12:33 59.30761 17.48474 13502 ft 347 kts 210°
2026-05-06 12:33 59.28599 17.46377 14170 ft 349 kts 210°
2026-05-06 12:33 59.26436 17.44280 14818 ft 351 kts 210°
2026-05-06 12:34 59.24239 17.42152 15466 ft 353 kts 211°
2026-05-06 12:34 59.22065 17.40048 16121 ft 354 kts 211°
2026-05-06 12:34 59.19877 17.37931 16761 ft 355 kts 211°
2026-05-06 12:34 59.17665 17.35795 17392 ft 356 kts 211°
2026-05-06 12:35 59.15457 17.33668 18000 ft 358 kts 210°
2026-05-06 12:35 59.13226 17.31523 18637 ft 358 kts 210°
2026-05-06 12:35 59.10974 17.29358 19250 ft 359 kts 211°
2026-05-06 12:35 59.08763 17.27162 19838 ft 359 kts 213°
2026-05-06 12:36 59.06640 17.24661 20406 ft 357 kts 218°
2026-05-06 12:36 59.04657 17.21819 20938 ft 357 kts 221°
2026-05-06 12:36 59.02743 17.18800 21459 ft 358 kts 223°
2026-05-06 12:36 59.00865 17.15722 21966 ft 359 kts 224°
2026-05-06 12:37 58.98968 17.12590 22462 ft 360 kts 224°
2026-05-06 12:37 58.97055 17.09446 22938 ft 362 kts 223°
2026-05-06 12:37 58.95140 17.06321 23399 ft 363 kts 223°
2026-05-06 12:37 58.93198 17.03175 23852 ft 365 kts 223°
2026-05-06 12:38 58.91249 17.00033 24290 ft 366 kts 223°
2026-05-06 12:38 58.89300 16.96907 24714 ft 368 kts 223°
2026-05-06 12:38 58.87308 16.93721 25148 ft 370 kts 223°
2026-05-06 12:38 58.85345 16.90591 25569 ft 371 kts 223°
2026-05-06 12:39 58.83361 16.87431 25999 ft 373 kts 223°
2026-05-06 12:39 58.81365 16.84261 26441 ft 374 kts 223°
2026-05-06 12:39 58.79365 16.81087 26876 ft 375 kts 222°
2026-05-06 12:39 58.77344 16.77887 27307 ft 376 kts 222°
2026-05-06 12:40 58.75319 16.74686 27723 ft 377 kts 222°
2026-05-06 12:40 58.73317 16.71520 28123 ft 378 kts 222°
2026-05-06 12:40 58.71264 16.68280 28528 ft 379 kts 222°
2026-05-06 12:40 58.69240 16.65092 28924 ft 381 kts 221°
2026-05-06 12:41 58.67170 16.61840 29312 ft 382 kts 221°
2026-05-06 12:41 58.65086 16.58572 29682 ft 383 kts 221°
2026-05-06 12:41 58.63037 16.55358 30067 ft 385 kts 221°
2026-05-06 12:41 58.60965 16.52114 30450 ft 386 kts 221°
2026-05-06 12:42 58.58891 16.48873 30883 ft 385 kts 220°
2026-05-06 12:42 58.56828 16.45657 31380 ft 382 kts 220°
2026-05-06 12:42 58.54754 16.42430 31811 ft 380 kts 220°
2026-05-06 12:42 58.52733 16.39295 32216 ft 379 kts 220°
2026-05-06 12:43 58.50705 16.36147 32626 ft 377 kts 220°
2026-05-06 12:43 58.48680 16.33008 33018 ft 377 kts 219°
2026-05-06 12:43 58.46606 16.29800 33424 ft 376 kts 219°
2026-05-06 12:43 58.44593 16.26690 33808 ft 375 kts 219°
2026-05-06 12:44 58.42571 16.23572 34174 ft 375 kts 219°
2026-05-06 12:44 58.40549 16.20458 34527 ft 374 kts 219°
2026-05-06 12:44 58.38545 16.17376 34867 ft 373 kts 219°
2026-05-06 12:44 58.36531 16.14283 35048 ft 375 kts 219°
2026-05-06 12:45 58.32478 16.08075 35034 ft 370 kts 219°
2026-05-06 12:46 58.26510 15.98962 34978 ft 369 kts 219°
2026-05-06 12:46 58.22516 15.92888 34957 ft 370 kts 219°
2026-05-06 12:47 58.18491 15.86788 34970 ft 372 kts 218°
2026-05-06 12:47 58.14440 15.80665 34975 ft 371 kts 218°
2026-05-06 12:48 58.10439 15.74634 34972 ft 369 kts 218°
2026-05-06 12:48 58.06426 15.68602 34971 ft 370 kts 218°
2026-05-06 12:49 58.02415 15.62653 34969 ft 370 kts 217°
2026-05-06 12:49 57.97918 15.58062 34968 ft 373 kts 201°
2026-05-06 12:50 57.92787 15.56307 34969 ft 380 kts 190°
2026-05-06 12:50 57.87493 15.55720 34969 ft 382 kts 188°
2026-05-06 12:51 57.82212 15.55298 34965 ft 382 kts 188°
2026-05-06 12:51 57.76909 15.54849 34963 ft 382 kts 188°
2026-05-06 12:52 57.71634 15.54371 34964 ft 382 kts 188°
2026-05-06 12:52 57.66330 15.53876 34964 ft 382 kts 188°
2026-05-06 12:53 57.61037 15.53377 34963 ft 382 kts 188°
2026-05-06 12:53 57.55759 15.52879 34961 ft 383 kts 188°
2026-05-06 12:54 57.50468 15.52380 34960 ft 383 kts 188°
2026-05-06 12:54 57.45151 15.51878 34957 ft 384 kts 188°
2026-05-06 12:55 57.39809 15.51377 34953 ft 385 kts 187°
2026-05-06 12:55 57.34495 15.50879 34954 ft 385 kts 187°
2026-05-06 12:56 57.29163 15.50384 34956 ft 385 kts 187°
2026-05-06 12:56 57.23787 15.49884 34954 ft 386 kts 187°
2026-05-06 12:57 57.18440 15.49389 34951 ft 387 kts 187°
2026-05-06 12:57 57.13056 15.48892 34950 ft 388 kts 187°
2026-05-06 12:58 57.07654 15.48394 34950 ft 389 kts 186°
2026-05-06 12:58 57.02256 15.47898 34950 ft 389 kts 186°
2026-05-06 12:59 56.96847 15.47404 34950 ft 390 kts 186°
2026-05-06 12:59 56.91421 15.46908 34952 ft 390 kts 186°
2026-05-06 13:00 56.85988 15.46413 34954 ft 391 kts 186°
2026-05-06 13:00 56.80558 15.45921 34952 ft 392 kts 186°
2026-05-06 13:01 56.75146 15.45431 34949 ft 393 kts 186°
2026-05-06 13:01 56.69710 15.44941 34949 ft 393 kts 185°
2026-05-06 13:02 56.64261 15.44450 34949 ft 394 kts 185°
2026-05-06 13:02 56.58778 15.43959 34948 ft 394 kts 185°
2026-05-06 13:03 56.53310 15.43469 34947 ft 395 kts 185°
2026-05-06 13:03 56.47851 15.42982 34946 ft 396 kts 185°
2026-05-06 13:04 56.42347 15.42492 34945 ft 397 kts 185°
2026-05-06 13:04 56.36882 15.42008 34944 ft 397 kts 185°
2026-05-06 13:05 56.31354 15.41518 34943 ft 397 kts 184°
2026-05-06 13:05 56.25871 15.41035 34942 ft 398 kts 184°
2026-05-06 13:06 56.20362 15.40551 34942 ft 398 kts 184°
2026-05-06 13:06 56.14843 15.40067 34942 ft 398 kts 184°
2026-05-06 13:07 56.09304 15.39583 34942 ft 399 kts 184°
2026-05-06 13:07 56.03779 15.39102 34942 ft 399 kts 184°
2026-05-06 13:08 55.98287 15.38625 34943 ft 399 kts 184°
2026-05-06 13:08 55.92759 15.38146 34944 ft 399 kts 184°
2026-05-06 13:09 55.87215 15.37666 34938 ft 399 kts 184°
2026-05-06 13:09 55.81665 15.37187 34936 ft 401 kts 184°
2026-05-06 13:10 55.76120 15.36710 34943 ft 403 kts 184°
2026-05-06 13:10 55.70514 15.36230 34941 ft 403 kts 184°
2026-05-06 13:11 55.64943 15.35755 34935 ft 404 kts 184°
2026-05-06 13:11 55.59332 15.35277 34932 ft 404 kts 184°
2026-05-06 13:12 55.53733 15.34801 34930 ft 405 kts 183°
2026-05-06 13:12 55.48130 15.34326 34928 ft 405 kts 183°
2026-05-06 13:13 55.42509 15.33851 34925 ft 405 kts 183°
2026-05-06 13:13 55.36902 15.33379 34922 ft 405 kts 183°
2026-05-06 13:14 55.31310 15.32909 34918 ft 405 kts 183°
2026-05-06 13:14 55.25694 15.32439 34917 ft 406 kts 183°
2026-05-06 13:15 55.20056 15.31968 34916 ft 407 kts 183°
2026-05-06 13:15 55.14410 15.31498 34915 ft 407 kts 183°
2026-05-06 13:16 55.08776 15.31030 34913 ft 408 kts 183°
2026-05-06 13:16 55.03106 15.30561 34912 ft 408 kts 183°
2026-05-06 13:17 54.97461 15.30095 34911 ft 408 kts 183°
2026-05-06 13:17 54.91790 15.29629 34909 ft 409 kts 183°
2026-05-06 13:18 54.86107 15.29658 34907 ft 410 kts 179°
2026-05-06 13:18 54.80425 15.30137 34905 ft 410 kts 178°
2026-05-06 13:19 54.74763 15.30625 34905 ft 410 kts 178°
2026-05-06 13:19 54.69082 15.31058 34903 ft 411 kts 179°
2026-05-06 13:20 54.63399 15.31452 34902 ft 411 kts 179°
2026-05-06 13:20 54.57684 15.31829 34900 ft 411 kts 179°
2026-05-06 13:21 54.51990 15.32195 34897 ft 411 kts 179°
2026-05-06 13:21 54.46307 15.32560 34895 ft 412 kts 179°
2026-05-06 13:22 54.40573 15.32929 34893 ft 412 kts 179°
2026-05-06 13:22 54.34897 15.33292 34893 ft 412 kts 179°
2026-05-06 13:23 54.29160 15.33658 34894 ft 412 kts 179°
2026-05-06 13:23 54.23455 15.34022 34890 ft 412 kts 179°
2026-05-06 13:24 54.17736 15.34384 34885 ft 413 kts 179°
2026-05-06 13:24 54.12024 15.34746 34880 ft 413 kts 179°
2026-05-06 13:25 54.06303 15.35107 34875 ft 413 kts 179°
2026-05-06 13:25 54.00565 15.35468 34870 ft 413 kts 179°
2026-05-06 13:26 53.94868 15.35825 34857 ft 413 kts 180°
2026-05-06 13:26 53.89100 15.36185 34851 ft 414 kts 180°
2026-05-06 13:27 53.83356 15.36544 34858 ft 414 kts 180°
2026-05-06 13:27 53.77637 15.36900 34855 ft 414 kts 180°
2026-05-06 13:28 53.71901 15.37256 34847 ft 414 kts 180°
2026-05-06 13:28 53.66144 15.37612 34844 ft 414 kts 180°
2026-05-06 13:29 53.60401 15.37966 34843 ft 414 kts 180°
2026-05-06 13:29 53.54671 15.38319 34840 ft 414 kts 180°
2026-05-06 13:30 53.48948 15.38671 34837 ft 414 kts 180°
2026-05-06 13:30 53.43199 15.39022 34837 ft 414 kts 180°
2026-05-06 13:31 53.37470 15.39295 34836 ft 413 kts 182°
2026-05-06 13:31 53.31729 15.39094 34837 ft 412 kts 184°
2026-05-06 13:32 53.26015 15.38758 34837 ft 412 kts 184°
2026-05-06 13:32 53.20290 15.38446 34832 ft 412 kts 184°
2026-05-06 13:33 53.14567 15.38171 34827 ft 412 kts 184°
2026-05-06 13:33 53.08866 15.37918 34825 ft 412 kts 184°
2026-05-06 13:34 53.03142 15.37673 34823 ft 412 kts 184°
2026-05-06 13:34 52.97463 15.37434 34821 ft 411 kts 184°
2026-05-06 13:35 52.91734 15.37195 34818 ft 411 kts 184°
2026-05-06 13:35 52.86019 15.36956 34816 ft 411 kts 184°
2026-05-06 13:36 52.80314 15.36718 34814 ft 411 kts 185°
2026-05-06 13:36 52.74635 15.36482 34811 ft 410 kts 185°
2026-05-06 13:37 52.68946 15.36246 34807 ft 410 kts 185°
2026-05-06 13:37 52.63274 15.36013 34805 ft 409 kts 185°
2026-05-06 13:38 52.57566 15.35778 34802 ft 409 kts 185°
2026-05-06 13:38 52.51900 15.35545 34799 ft 409 kts 185°
2026-05-06 13:39 52.46254 15.35313 34796 ft 408 kts 185°
2026-05-06 13:39 52.40580 15.35082 34794 ft 408 kts 185°
2026-05-06 13:40 52.34924 15.34850 34791 ft 408 kts 185°
2026-05-06 13:40 52.29253 15.34620 34787 ft 408 kts 185°
2026-05-06 13:41 52.23571 15.34390 34783 ft 408 kts 185°
2026-05-06 13:41 52.17919 15.34161 34782 ft 407 kts 185°
2026-05-06 13:42 52.12289 15.33934 34782 ft 407 kts 185°
2026-05-06 13:42 52.06620 15.33706 34781 ft 407 kts 185°
2026-05-06 13:43 52.01000 15.33480 34781 ft 407 kts 185°
2026-05-06 13:43 51.95355 15.33254 34781 ft 406 kts 185°
2026-05-06 13:44 51.89711 15.33029 34785 ft 406 kts 186°
2026-05-06 13:44 51.84080 15.32805 34786 ft 406 kts 186°
2026-05-06 13:45 51.78433 15.32582 34782 ft 405 kts 186°
2026-05-06 13:45 51.69982 15.32245 34782 ft 406 kts 186°
2026-05-06 13:46 51.64347 15.32022 34784 ft 406 kts 186°
2026-05-06 13:46 51.58723 15.31800 34785 ft 406 kts 186°
2026-05-06 13:47 51.53100 15.31579 34786 ft 406 kts 186°
2026-05-06 13:47 51.47492 15.31359 34789 ft 406 kts 186°
2026-05-06 13:48 51.41882 15.31140 34791 ft 406 kts 186°
2026-05-06 13:48 51.36229 15.30919 34793 ft 407 kts 186°
2026-05-06 13:49 51.30600 15.30700 34789 ft 407 kts 186°
2026-05-06 13:49 51.24939 15.30480 34782 ft 407 kts 186°
2026-05-06 13:50 51.19313 15.30262 34779 ft 407 kts 186°
2026-05-06 13:50 51.13647 15.30042 34780 ft 407 kts 186°
2026-05-06 13:51 51.08028 15.29826 34784 ft 407 kts 186°
2026-05-06 13:51 51.02367 15.29609 34787 ft 407 kts 186°
2026-05-06 13:52 50.96737 15.29160 34789 ft 405 kts 191°
2026-05-06 13:52 50.91270 15.27421 34792 ft 400 kts 198°
2026-05-06 13:53 50.85905 15.24869 34793 ft 399 kts 201°
2026-05-06 13:53 50.80657 15.22184 34796 ft 399 kts 201°
2026-05-06 13:54 50.75357 15.19492 34800 ft 399 kts 201°
2026-05-06 13:54 50.70100 15.16862 34797 ft 399 kts 200°
2026-05-06 13:55 50.64819 15.14247 34791 ft 400 kts 200°
2026-05-06 13:55 50.59507 15.11632 34784 ft 400 kts 200°
2026-05-06 13:56 50.54203 15.09030 34776 ft 400 kts 200°
2026-05-06 13:56 50.48893 15.06432 34769 ft 401 kts 200°
2026-05-06 13:57 50.43599 15.03848 34767 ft 401 kts 200°
2026-05-06 13:57 50.38284 15.01260 34765 ft 401 kts 200°
2026-05-06 13:58 50.32970 14.98678 34764 ft 401 kts 200°
2026-05-06 13:58 50.27649 14.96100 34762 ft 400 kts 200°
2026-05-06 13:59 50.22344 14.93535 34763 ft 400 kts 200°
2026-05-06 13:59 50.17049 14.90980 34769 ft 400 kts 200°
2026-05-06 14:00 50.11769 14.88439 34778 ft 399 kts 200°
2026-05-06 14:00 50.06456 14.85888 34787 ft 400 kts 200°
2026-05-06 14:01 50.01167 14.83354 34792 ft 400 kts 200°
2026-05-06 14:01 49.95849 14.80812 34794 ft 400 kts 200°
2026-05-06 14:02 49.90544 14.78282 34796 ft 399 kts 200°
2026-05-06 14:02 49.85243 14.75761 34800 ft 399 kts 201°
2026-05-06 14:03 49.79949 14.73248 34804 ft 399 kts 201°
2026-05-06 14:03 49.74675 14.70750 34806 ft 399 kts 201°
2026-05-06 14:04 49.69347 14.68232 34809 ft 399 kts 201°
2026-05-06 14:04 49.64060 14.65739 34813 ft 399 kts 201°
2026-05-06 14:05 49.58776 14.63254 34818 ft 399 kts 201°
2026-05-06 14:05 49.53452 14.60756 34823 ft 400 kts 201°
2026-05-06 14:06 49.48186 14.58291 34826 ft 397 kts 201°
2026-05-06 14:06 49.42871 14.55808 34821 ft 399 kts 201°
2026-05-06 14:07 49.37582 14.53342 34815 ft 399 kts 201°
2026-05-06 14:07 49.32258 14.50866 34810 ft 399 kts 201°
2026-05-06 14:08 49.26957 14.48407 34803 ft 399 kts 201°
2026-05-06 14:08 49.21634 14.45943 34796 ft 399 kts 201°
2026-05-06 14:09 49.16336 14.43496 34778 ft 399 kts 201°
2026-05-06 14:09 49.11055 14.41062 34754 ft 399 kts 201°
2026-05-06 14:10 49.05761 14.38628 34739 ft 398 kts 201°
2026-05-06 14:10 49.00473 14.36203 34730 ft 398 kts 201°
2026-05-06 14:11 48.95061 14.34230 34729 ft 404 kts 192°
2026-05-06 14:11 48.89427 14.33991 34734 ft 412 kts 184°
2026-05-06 14:12 48.83657 14.34598 34737 ft 414 kts 181°
2026-05-06 14:12 48.77948 14.35331 34740 ft 414 kts 182°
2026-05-06 14:13 48.72240 14.36029 34740 ft 413 kts 182°
2026-05-06 14:13 48.66509 14.36687 34738 ft 412 kts 182°
2026-05-06 14:14 48.60833 14.37316 34735 ft 412 kts 182°
2026-05-06 14:14 48.55094 14.37941 34732 ft 412 kts 183°
2026-05-06 14:15 48.49387 14.38558 34730 ft 411 kts 183°
2026-05-06 14:15 48.43704 14.39171 34717 ft 411 kts 183°
2026-05-06 14:16 48.37991 14.39786 34703 ft 411 kts 183°
2026-05-06 14:16 48.32305 14.40398 34690 ft 411 kts 183°
2026-05-06 14:17 48.26598 14.41004 34677 ft 411 kts 183°
2026-05-06 14:17 48.20927 14.41604 34673 ft 411 kts 183°
2026-05-06 14:18 48.15234 14.42213 34689 ft 411 kts 183°
2026-05-06 14:18 48.09553 14.42817 34711 ft 411 kts 183°
2026-05-06 14:19 48.03843 14.43430 34735 ft 410 kts 183°
2026-05-06 14:19 47.98169 14.44038 34755 ft 410 kts 184°
2026-05-06 14:20 47.92477 14.44641 34771 ft 411 kts 184°
2026-05-06 14:20 47.86795 14.45407 34790 ft 415 kts 181°
2026-05-06 14:21 47.81041 14.46517 34815 ft 416 kts 180°
2026-05-06 14:21 47.75314 14.47653 34838 ft 415 kts 180°
2026-05-06 14:22 47.69623 14.48754 34842 ft 416 kts 180°
2026-05-06 14:22 47.63897 14.49837 34836 ft 415 kts 180°
2026-05-06 14:23 47.58166 14.50905 34836 ft 416 kts 180°
2026-05-06 14:23 47.52423 14.51970 34842 ft 417 kts 180°
2026-05-06 14:24 47.46681 14.53031 34854 ft 417 kts 180°
2026-05-06 14:24 47.40943 14.54087 34873 ft 417 kts 180°
2026-05-06 14:25 47.35192 14.55144 34892 ft 417 kts 180°
2026-05-06 14:25 47.29459 14.56195 34895 ft 418 kts 180°
2026-05-06 14:26 47.23698 14.57249 34864 ft 418 kts 180°
2026-05-06 14:26 47.17927 14.58302 34850 ft 418 kts 180°
2026-05-06 14:27 47.12165 14.59351 34856 ft 418 kts 180°
2026-05-06 14:27 47.06410 14.60395 34877 ft 419 kts 180°
2026-05-06 14:28 47.00623 14.61444 34899 ft 419 kts 180°
2026-05-06 14:28 46.94821 14.62494 34902 ft 420 kts 180°
2026-05-06 14:29 46.89034 14.63538 34889 ft 420 kts 179°
2026-05-06 14:29 46.83231 14.64583 34881 ft 421 kts 179°
2026-05-06 14:30 46.77461 14.65621 34874 ft 419 kts 180°
2026-05-06 14:30 46.71656 14.66663 34886 ft 419 kts 180°
2026-05-06 14:31 46.65863 14.67699 34905 ft 421 kts 180°
2026-05-06 14:31 46.60081 14.68729 34683 ft 421 kts 180°
2026-05-06 14:32 46.57165 14.69250 34497 ft 421 kts 180°
2026-05-06 14:32 46.54293 14.69762 34282 ft 421 kts 180°
2026-05-06 14:32 46.51381 14.70280 34026 ft 422 kts 180°
2026-05-06 14:32 46.48490 14.70793 33775 ft 420 kts 180°
2026-05-06 14:33 46.45616 14.71308 33877 ft 413 kts 180°
2026-05-06 14:33 46.42784 14.71814 34064 ft 411 kts 180°
2026-05-06 14:33 46.39975 14.72314 34249 ft 408 kts 180°
2026-05-06 14:33 46.37153 14.72814 34424 ft 405 kts 180°
2026-05-06 14:34 46.34360 14.73307 34679 ft 407 kts 180°
2026-05-06 14:34 46.31523 14.73803 34802 ft 412 kts 180°
2026-05-06 14:34 46.25749 14.74805 34969 ft 423 kts 179°
2026-05-06 14:35 46.19967 14.75822 35007 ft 420 kts 179°
2026-05-06 14:35 46.14164 14.76845 34997 ft 420 kts 179°
2026-05-06 14:36 46.08398 14.77858 34973 ft 420 kts 179°
2026-05-06 14:36 46.02593 14.78772 34959 ft 419 kts 180°
2026-05-06 14:37 45.96829 14.79587 34952 ft 419 kts 180°
2026-05-06 14:37 45.91047 14.80400 34951 ft 417 kts 180°
2026-05-06 14:38 45.85243 14.81220 34916 ft 421 kts 180°
2026-05-06 14:38 45.79458 14.82047 34868 ft 420 kts 180°
2026-05-06 14:39 45.73642 14.82881 34851 ft 421 kts 180°
2026-05-06 14:39 45.67807 14.83717 34859 ft 422 kts 180°
2026-05-06 14:40 45.61979 14.84552 34878 ft 422 kts 180°
2026-05-06 14:40 45.56159 14.85384 34898 ft 422 kts 180°
2026-05-06 14:41 45.50322 14.86216 34923 ft 422 kts 180°
2026-05-06 14:41 45.44482 14.86853 34856 ft 420 kts 184°
2026-05-06 14:42 45.38667 14.86750 34682 ft 417 kts 187°
2026-05-06 14:42 45.35747 14.86600 34570 ft 418 kts 187°
2026-05-06 14:42 45.32861 14.86447 34438 ft 418 kts 187°
2026-05-06 14:43 45.29966 14.86303 34266 ft 418 kts 187°
2026-05-06 14:43 45.27049 14.86168 34095 ft 419 kts 187°
2026-05-06 14:43 45.21243 14.85931 34035 ft 419 kts 187°
2026-05-06 14:44 45.18346 14.85823 34180 ft 419 kts 186°
2026-05-06 14:44 45.15412 14.85719 34346 ft 419 kts 186°
2026-05-06 14:44 45.12530 14.85619 34492 ft 420 kts 186°
2026-05-06 14:45 45.06662 14.85420 34793 ft 424 kts 186°
2026-05-06 14:45 45.00796 14.85226 34951 ft 420 kts 186°
2026-05-06 14:46 44.94965 14.85037 34943 ft 419 kts 186°
2026-05-06 14:46 44.89184 14.84846 34926 ft 420 kts 186°
2026-05-06 14:47 44.83329 14.84652 34907 ft 420 kts 186°
2026-05-06 14:47 44.77501 14.84461 34897 ft 420 kts 186°
2026-05-06 14:48 44.71672 14.84269 34942 ft 419 kts 186°
2026-05-06 14:48 44.65848 14.84079 34984 ft 421 kts 186°
2026-05-06 14:49 44.60017 14.83890 34982 ft 420 kts 186°
2026-05-06 14:49 44.54164 14.83700 34976 ft 420 kts 186°
2026-05-06 14:50 44.48327 14.83510 34967 ft 420 kts 186°
2026-05-06 14:50 44.42504 14.83321 34968 ft 420 kts 186°
2026-05-06 14:51 44.36663 14.83132 34972 ft 420 kts 186°
2026-05-06 14:51 44.30811 14.82944 34975 ft 420 kts 186°
2026-05-06 14:52 44.24956 14.82755 34977 ft 420 kts 186°
2026-05-06 14:52 44.19134 14.82568 34979 ft 420 kts 186°
2026-05-06 14:53 44.13305 14.82381 34980 ft 420 kts 186°
2026-05-06 14:53 44.07468 14.82194 34981 ft 420 kts 186°
2026-05-06 14:54 44.01650 14.82008 34982 ft 420 kts 186°
2026-05-06 14:54 43.95812 14.81822 34985 ft 420 kts 186°
2026-05-06 14:55 43.89980 14.81636 34990 ft 421 kts 186°
2026-05-06 14:55 43.84130 14.81449 34990 ft 421 kts 186°
2026-05-06 14:56 43.78247 14.81263 34984 ft 421 kts 186°
2026-05-06 14:56 43.72414 14.81078 34983 ft 421 kts 186°
2026-05-06 14:57 43.66571 14.80894 34983 ft 421 kts 186°
2026-05-06 14:57 43.60730 14.80710 34985 ft 421 kts 186°
2026-05-06 14:58 43.54874 14.80526 34984 ft 421 kts 186°
2026-05-06 14:58 43.49003 14.80341 34977 ft 422 kts 186°
2026-05-06 14:59 43.43161 14.80158 34971 ft 422 kts 186°
2026-05-06 14:59 43.37277 14.79973 34968 ft 422 kts 186°
2026-05-06 15:00 43.31411 14.79790 34966 ft 422 kts 186°
2026-05-06 15:00 43.25584 14.79495 34963 ft 421 kts 187°
2026-05-06 15:01 43.19741 14.79084 34959 ft 421 kts 188°
2026-05-06 15:01 43.13878 14.78662 34950 ft 421 kts 188°
2026-05-06 15:02 43.08050 14.78256 34942 ft 422 kts 187°
2026-05-06 15:02 43.02208 14.77861 34939 ft 422 kts 188°
2026-05-06 15:03 42.96336 14.77469 34938 ft 422 kts 188°
2026-05-06 15:03 42.90473 14.77080 34936 ft 422 kts 188°
2026-05-06 15:04 42.84582 14.76691 34933 ft 422 kts 188°
2026-05-06 15:04 42.78754 14.76307 34931 ft 422 kts 188°
2026-05-06 15:05 42.72902 14.75923 34920 ft 421 kts 188°
2026-05-06 15:05 42.67082 14.75544 34918 ft 419 kts 189°
2026-05-06 15:06 42.61275 14.75165 34928 ft 418 kts 190°
2026-05-06 15:06 42.55482 14.74784 34927 ft 418 kts 190°
2026-05-06 15:07 42.49672 14.74404 34923 ft 418 kts 190°
2026-05-06 15:07 42.43886 14.74026 34922 ft 418 kts 190°
2026-05-06 15:08 42.38072 14.73649 34922 ft 418 kts 190°
2026-05-06 15:08 42.32261 14.73272 34925 ft 418 kts 190°
2026-05-06 15:09 42.26483 14.72897 34928 ft 418 kts 190°
2026-05-06 15:09 42.20681 14.72522 34929 ft 418 kts 190°
2026-05-06 15:10 42.14899 14.72149 34930 ft 418 kts 190°
2026-05-06 15:10 42.09080 14.71773 34933 ft 418 kts 190°
2026-05-06 15:11 42.03289 14.71401 34937 ft 418 kts 190°
2026-05-06 15:11 41.97476 14.71029 34941 ft 418 kts 190°
2026-05-06 15:12 41.91697 14.70658 34946 ft 418 kts 190°
2026-05-06 15:12 41.85834 14.70281 34959 ft 421 kts 189°
2026-05-06 15:13 41.79958 14.69905 34973 ft 423 kts 189°
2026-05-06 15:13 41.74114 14.69535 34972 ft 422 kts 189°
2026-05-06 15:14 41.68256 14.69164 34978 ft 422 kts 189°
2026-05-06 15:14 41.62402 14.68793 34987 ft 422 kts 189°
2026-05-06 15:15 41.56540 14.68422 34995 ft 422 kts 189°
2026-05-06 15:15 41.50689 14.68050 35005 ft 423 kts 189°
2026-05-06 15:16 41.44804 14.67678 35000 ft 424 kts 189°
2026-05-06 15:16 41.38907 14.67307 34985 ft 424 kts 189°
2026-05-06 15:17 41.33051 14.66940 34970 ft 424 kts 189°
2026-05-06 15:17 41.27161 14.66570 34961 ft 425 kts 189°
2026-05-06 15:18 41.21229 14.66198 34958 ft 426 kts 189°
2026-05-06 15:18 41.15332 14.65829 34964 ft 426 kts 189°
2026-05-06 15:19 41.09404 14.65459 35029 ft 426 kts 189°
2026-05-06 15:19 41.03479 14.65090 35229 ft 427 kts 189°
2026-05-06 15:19 41.00529 14.64906 35334 ft 428 kts 189°
2026-05-06 15:20 40.97528 14.64717 35342 ft 431 kts 189°
2026-05-06 15:20 40.91589 14.64349 35179 ft 427 kts 189°
2026-05-06 15:21 40.85659 14.63985 35018 ft 426 kts 189°
2026-05-06 15:21 40.79686 14.63614 35018 ft 430 kts 189°
2026-05-06 15:22 40.73719 14.63244 35043 ft 431 kts 189°
2026-05-06 15:22 40.67759 14.62877 35040 ft 430 kts 189°
2026-05-06 15:23 40.61790 14.62511 35034 ft 431 kts 189°
2026-05-06 15:23 40.55807 14.62143 35029 ft 431 kts 189°
2026-05-06 15:24 40.49786 14.61774 35022 ft 432 kts 189°
2026-05-06 15:24 40.43796 14.61407 35020 ft 432 kts 189°
2026-05-06 15:25 40.37809 14.61042 35019 ft 432 kts 189°
2026-05-06 15:25 40.31782 14.60674 35020 ft 433 kts 189°
2026-05-06 15:26 40.25809 14.60310 35021 ft 433 kts 189°
2026-05-06 15:26 40.19768 14.59944 35022 ft 433 kts 189°
2026-05-06 15:27 40.13763 14.59580 35023 ft 433 kts 189°
2026-05-06 15:27 40.07766 14.59217 35024 ft 433 kts 189°
2026-05-06 15:28 40.01766 14.58854 35023 ft 433 kts 189°
2026-05-06 15:28 39.95768 14.58492 35018 ft 433 kts 189°
2026-05-06 15:29 39.89743 14.58129 35015 ft 433 kts 189°
2026-05-06 15:29 39.83709 14.57765 35020 ft 435 kts 189°
2026-05-06 15:30 39.77646 14.57400 35027 ft 436 kts 189°
2026-05-06 15:30 39.71634 14.57041 35029 ft 435 kts 189°
2026-05-06 15:31 39.65581 14.56680 35030 ft 435 kts 189°
2026-05-06 15:31 39.59525 14.56319 35032 ft 435 kts 189°
2026-05-06 15:32 39.50457 14.55778 35020 ft 436 kts 188°
2026-05-06 15:32 39.44400 14.55418 35003 ft 437 kts 188°
2026-05-06 15:33 39.38330 14.55058 35001 ft 437 kts 188°
2026-05-06 15:33 39.32287 14.54700 35006 ft 437 kts 188°
2026-05-06 15:34 39.26193 14.54339 35009 ft 437 kts 188°
2026-05-06 15:34 39.20148 14.53983 35008 ft 437 kts 188°
2026-05-06 15:35 39.14066 14.53624 35008 ft 437 kts 188°
2026-05-06 15:35 39.07971 14.53265 35007 ft 438 kts 188°
2026-05-06 15:36 39.01928 14.52911 35007 ft 438 kts 188°
2026-05-06 15:36 38.95824 14.52553 35007 ft 438 kts 188°
2026-05-06 15:37 38.89787 14.52200 35009 ft 438 kts 188°
2026-05-06 15:37 38.83659 14.51841 35011 ft 438 kts 188°
2026-05-06 15:38 38.77573 14.51487 35009 ft 438 kts 187°
2026-05-06 15:38 38.71501 14.51133 35007 ft 438 kts 187°
2026-05-06 15:39 38.65384 14.50778 35006 ft 438 kts 187°
2026-05-06 15:39 38.59317 14.50426 35007 ft 438 kts 187°
2026-05-06 15:40 38.53247 14.50075 34994 ft 438 kts 187°
2026-05-06 15:40 38.47163 14.49723 34977 ft 438 kts 187°
2026-05-06 15:41 38.41098 14.49373 34951 ft 437 kts 187°
2026-05-06 15:41 38.35019 14.49023 34924 ft 437 kts 187°
2026-05-06 15:42 38.28931 14.48672 34911 ft 437 kts 187°
2026-05-06 15:42 38.22894 14.48326 34904 ft 436 kts 187°
2026-05-06 15:43 38.16826 14.47978 34911 ft 436 kts 187°
2026-05-06 15:43 38.10785 14.47631 34921 ft 436 kts 187°
2026-05-06 15:44 38.04734 14.47286 34930 ft 436 kts 187°
2026-05-06 15:44 37.98653 14.46939 34938 ft 435 kts 187°
2026-05-06 15:45 37.92610 14.46595 34945 ft 436 kts 187°
2026-05-06 15:45 37.86559 14.46250 34955 ft 436 kts 187°
2026-05-06 15:46 37.80484 14.45905 34960 ft 436 kts 187°
2026-05-06 15:46 37.74458 14.45564 34965 ft 436 kts 187°
2026-05-06 15:47 37.68375 14.45220 34960 ft 436 kts 187°
2026-05-06 15:47 37.62309 14.44877 34954 ft 436 kts 187°
2026-05-06 15:48 37.56308 14.44539 34636 ft 431 kts 187°
2026-05-06 15:48 37.53321 14.44373 34167 ft 429 kts 187°
2026-05-06 15:48 37.50339 14.44205 33516 ft 432 kts 187°
2026-05-06 15:49 37.47311 14.44031 32689 ft 436 kts 187°
2026-05-06 15:49 37.44297 14.43860 32065 ft 433 kts 187°
2026-05-06 15:49 37.41326 14.43694 31484 ft 429 kts 187°
2026-05-06 15:49 37.38341 14.43529 30884 ft 426 kts 186°
2026-05-06 15:50 37.35422 14.43367 30256 ft 421 kts 186°
2026-05-06 15:50 37.32515 14.43207 29695 ft 416 kts 186°
2026-05-06 15:50 37.29626 14.43046 29128 ft 411 kts 186°
2026-05-06 15:50 37.26782 14.42887 28578 ft 407 kts 186°
2026-05-06 15:51 37.23976 14.42730 28103 ft 402 kts 186°
2026-05-06 15:51 37.21220 14.42577 27661 ft 396 kts 186°
2026-05-06 15:51 37.18475 14.42388 27223 ft 391 kts 187°
2026-05-06 15:51 37.15749 14.42142 26802 ft 396 kts 188°
2026-05-06 15:52 37.12998 14.41869 26295 ft 398 kts 188°
2026-05-06 15:52 37.10247 14.41592 25680 ft 398 kts 188°
2026-05-06 15:52 37.07486 14.41315 25017 ft 400 kts 188°
2026-05-06 15:52 37.04715 14.41041 24297 ft 395 kts 188°
2026-05-06 15:53 37.02012 14.40780 23642 ft 389 kts 188°
2026-05-06 15:53 36.99332 14.40525 23060 ft 382 kts 188°
2026-05-06 15:53 36.96721 14.40278 22521 ft 376 kts 188°
2026-05-06 15:53 36.94111 14.40032 22007 ft 372 kts 188°
2026-05-06 15:54 36.91559 14.39791 21498 ft 368 kts 188°
2026-05-06 15:54 36.89034 14.39552 20972 ft 366 kts 188°
2026-05-06 15:54 36.86480 14.39305 20432 ft 363 kts 189°
2026-05-06 15:54 36.84016 14.38926 19903 ft 360 kts 192°
2026-05-06 15:55 36.81557 14.38392 19378 ft 357 kts 194°
2026-05-06 15:55 36.79116 14.37798 18847 ft 355 kts 195°
2026-05-06 15:55 36.76703 14.37195 18326 ft 353 kts 195°
2026-05-06 15:55 36.74302 14.36599 17793 ft 351 kts 194°
2026-05-06 15:56 36.71919 14.36020 17246 ft 350 kts 194°
2026-05-06 15:56 36.69526 14.35453 16712 ft 347 kts 194°
2026-05-06 15:56 36.67178 14.34907 16173 ft 343 kts 193°
2026-05-06 15:56 36.64852 14.34375 15660 ft 336 kts 193°
2026-05-06 15:57 36.62580 14.33859 15149 ft 330 kts 193°
2026-05-06 15:57 36.60339 14.33349 14620 ft 328 kts 193°
2026-05-06 15:57 36.58096 14.32839 14107 ft 326 kts 193°
2026-05-06 15:57 36.55881 14.32336 13618 ft 323 kts 193°
2026-05-06 15:58 36.53673 14.31835 13142 ft 321 kts 192°
2026-05-06 15:58 36.51506 14.31341 12653 ft 319 kts 192°
2026-05-06 15:58 36.49358 14.30689 12138 ft 317 kts 200°
2026-05-06 15:58 36.47284 14.29717 11641 ft 315 kts 204°
2026-05-06 15:59 36.45306 14.28637 11158 ft 313 kts 206°
2026-05-06 15:59 36.43325 14.27522 10674 ft 312 kts 205°
2026-05-06 15:59 36.41345 14.26426 10335 ft 306 kts 205°
2026-05-06 15:59 36.39449 14.25398 10186 ft 294 kts 205°
2026-05-06 16:00 36.37605 14.24413 10074 ft 281 kts 204°
2026-05-06 16:00 36.35841 14.23478 9798 ft 276 kts 204°
2026-05-06 16:00 36.34079 14.22545 9419 ft 275 kts 203°
2026-05-06 16:00 36.32327 14.21619 9063 ft 273 kts 203°
2026-05-06 16:01 36.30584 14.20699 8713 ft 271 kts 202°
2026-05-06 16:01 36.28858 14.19788 8361 ft 269 kts 202°
2026-05-06 16:01 36.27151 14.18886 8013 ft 267 kts 202°
2026-05-06 16:01 36.25436 14.17981 7663 ft 265 kts 202°
2026-05-06 16:02 36.23754 14.17093 7320 ft 263 kts 202°
2026-05-06 16:02 36.22088 14.16213 6983 ft 259 kts 201°
2026-05-06 16:02 36.20450 14.15348 6660 ft 253 kts 201°
2026-05-06 16:02 36.18861 14.14509 6582 ft 245 kts 201°
2026-05-06 16:03 36.17274 14.13674 6582 ft 248 kts 201°
2026-05-06 16:03 36.15640 14.13035 6576 ft 241 kts 187°
2026-05-06 16:03 36.14017 14.13203 6539 ft 235 kts 159°
2026-05-06 16:03 36.12638 14.14311 6298 ft 237 kts 138°
2026-05-06 16:04 36.11504 14.15745 6036 ft 234 kts 134°
2026-05-06 16:04 36.10385 14.17201 5777 ft 232 kts 135°
2026-05-06 16:04 36.09252 14.18626 5519 ft 231 kts 136°
2026-05-06 16:04 36.08128 14.20023 5261 ft 230 kts 136°
2026-05-06 16:05 36.06999 14.21426 5001 ft 228 kts 136°
2026-05-06 16:05 36.05889 14.22806 4748 ft 226 kts 135°
2026-05-06 16:05 36.04796 14.24168 4500 ft 220 kts 135°
2026-05-06 16:05 36.03727 14.25498 4260 ft 214 kts 135°
2026-05-06 16:06 36.02696 14.26781 4095 ft 204 kts 135°
2026-05-06 16:06 36.01716 14.27994 4034 ft 200 kts 135°
2026-05-06 16:06 36.00728 14.29222 3894 ft 201 kts 135°
2026-05-06 16:06 35.99749 14.30438 3737 ft 198 kts 135°
2026-05-06 16:07 35.98776 14.31646 3582 ft 195 kts 135°
2026-05-06 16:07 35.97837 14.32812 3390 ft 187 kts 135°
2026-05-06 16:07 35.96939 14.33924 3212 ft 178 kts 135°
2026-05-06 16:07 35.96105 14.34959 3092 ft 162 kts 135°
2026-05-06 16:08 35.95326 14.35922 2954 ft 155 kts 135°
2026-05-06 16:08 35.94595 14.36827 2777 ft 147 kts 135°
2026-05-06 16:08 35.93888 14.37701 2543 ft 141 kts 135°
2026-05-06 16:08 35.93194 14.38560 2377 ft 142 kts 135°
2026-05-06 16:09 35.92508 14.39413 2167 ft 140 kts 135°
2026-05-06 16:09 35.91814 14.40264 1981 ft 140 kts 134°
2026-05-06 16:09 35.91121 14.41127 1788 ft 140 kts 135°
2026-05-06 16:09 35.90437 14.41958 1625 ft 139 kts 134°
2026-05-06 16:10 35.89745 14.42818 1399 ft 141 kts 133°
2026-05-06 16:10 35.89050 14.43669 1224 ft 141 kts 133°
2026-05-06 16:10 35.88355 14.44519 1027 ft 141 kts 132°
2026-05-06 16:10 35.87653 14.45379 842 ft 142 kts 131°
2026-05-06 16:11 35.86962 14.46220 677 ft 141 kts 130°
2026-05-06 16:11 35.86272 14.47096 484 ft 142 kts 130°
2026-05-06 16:11 35.85583 14.47951 304 ft 141 kts 130°
2026-05-06 16:11 35.84945 14.48748 261 ft 107 kts 133°
2026-05-06 16:12 35.84568 14.49216 253 ft 42 kts 135°
2026-05-06 16:12 35.84482 14.49368 247 ft 9 kts 110°
2026-05-06 16:12 35.84475 14.49394 245 ft 7 kts 110°
2026-05-06 16:12 35.84453 14.49476 243 ft 11 kts 103°
2026-05-06 16:13 35.84463 14.49550 240 ft 5 kts 52°
2026-05-06 16:13 35.84502 14.49575 238 ft 6 kts
2026-05-06 16:13 35.84541 14.49551 238 ft 6 kts 320°
2026-05-06 16:13 35.84581 14.49535 238 ft 5 kts
2026-05-06 16:14 35.84607 14.49554 238 ft 3 kts 39°
2026-05-06 16:14 35.84627 14.49572 239 ft 3 kts 26°
2026-05-06 16:14 35.84653 14.49575 239 ft 5 kts 351°
2026-05-06 16:14 35.84687 14.49562 241 ft 4 kts 336°
2026-05-06 16:15 35.84719 14.49536 243 ft 5 kts 318°
2026-05-06 16:15 35.84749 14.49520 244 ft 5 kts 353°
2026-05-06 16:15 35.84774 14.49518 245 ft 1 kts 358°
2026-05-06 16:15 35.84791 14.49517 246 ft 2 kts 358°
2026-05-06 16:16 35.84802 14.49517 246 ft 2 kts 359°
2026-05-06 16:16 35.84809 14.49517 247 ft 1 kts 359°
2026-05-06 16:16 35.84811 14.49517 247 ft 0 kts 359°